Location: Tamazert
(32.6352°N, 5.2072°W)
Time: 04:06:01
(UTC+00:00)

Vanguard 2 Rocket - Pass Details

Date: 10 October 2022
Orbit: 555 x 3321 km, 32.9° (Epoch: 04 December)

Event Time Altitude Azimuth Distance (km) Brightness Sun altitude
Rises 17:36:40 0° 209° (SSW) 6,740 12.0 2.8°
Reaches altitude 10° 17:41:30 10° 201° (SSW) 5,972 11.5 1.8°
Maximum altitude 17:58:25 37° 142° (SE) 4,402 10.1 -1.7°
Drops below altitude 10° 18:14:14 10° 84° (E) 5,663 10.2 -5.0°
Enters shadow 18:16:09 - 80° (E) 5,966 10.4 -5.4°
Sets 18:18:34 0° 76° (ENE) 6,378 - -6.0°
